Weather History for Grand Island, NE

Change the Weather History Date:

Thursday, January 9, 2014

  Actual Average Record
Temperature  
Mean Temperature 23 °F 25 °F  
Max Temperature 34 °F 36 °F 61 °F (1933)
Min Temperature 11 °F 14 °F -16 °F (2010)
Degree Days  
Heating Degree Days 42 40  
Month to date heating degree days 434 360  
Since 1 July heating degree days 2898 2879  
Cooling Degree Days 0 0  
Month to date cooling degree days 0 0  
Year to date cooling degree days 0 0  
Moisture  
Dew Point 17 °F    
Average Humidity 79    
Maximum Humidity 88    
Minimum Humidity 69    
Precipitation  
Precipitation 0.00 in 0.01 in 0.73 in (2011)
Month to date precipitation 0.14 0.14  
Year to date precipitation 0.14 0.14  
Snow  
Snow 0.00 in 0.20 in 8.20 in (2011)
Month to date snowfall 1.9 1.7  
Since 1 July snowfall 4.3 11.0  
Snow Depth 1.00 in    
Sea Level Pressure  
Sea Level Pressure 30.13 in    
Wind  
Wind Speed 11 mph (South)    
Max Wind Speed 21 mph    
Max Gust Speed 27 mph    
Visibility 6 miles    
Events      
T = Trace of Precipitation, MM = Missing Value Source: NWS Daily Summary

Daily Weather History Graph

Daily Weather History Graph

Search for Another Location

Airport:

Trip Planner

Search our weather history database for the weather conditions in past years. The results will help you decide how hot, cold, wet, or windy it might be!

Date:

Astronomy

Jan. 09, 2014 Rise Set
Actual Time 7:57 AM CST 5:23 PM CST
Civil Twilight 7:27 AM CST 5:54 PM CST
Nautical Twilight 6:52 AM CST 6:28 PM CST
Astronomical Twilight 6:19 AM CST 7:01 PM CST
Moon 12:52 PM CST (1/9) 2:05 AM CST (1/9)
Length of Visible Light 10h 27m
Length of Day
9h 25m
Waxing Gibbous, 66% of the Moon is Illuminated
Jan 9
Waxing Gibbous
Jan 15
Full
Jan 23
Last Quarter
Jan 30
New
Feb 6
First Quarter

Hourly Weather History & Observations

Time (CST) Temp. Windchill Dew Point Humidity Pressure Visibility Wind Dir Wind Speed Gust Speed Precip Events Conditions
12:07 AM 14.0 °F 5.1 °F 10.0 °F 84% 30.26 in 9.0 mi SE 5.8 mph - N/A   Scattered Clouds
12:37 AM 12.0 °F 4.1 °F 9.0 °F 88% 30.25 in 8.0 mi SSE 4.6 mph - N/A   Mostly Cloudy
12:45 AM 10.9 °F 1.4 °F 8.1 °F 88% 30.25 in 8.0 mi SSE 5.8 mph - N/A   Mostly Cloudy
12:53 AM 12.0 °F 2.7 °F 8.1 °F 84% 30.36 in 8.0 mi SSE 5.8 mph - N/A   Mostly Cloudy
1:53 AM 14.0 °F 5.1 °F 10.9 °F 88% 30.33 in 7.0 mi South 5.8 mph - N/A   Overcast
2:49 AM 15.8 °F 5.1 °F 12.2 °F 86% 30.23 in 4.0 mi South 8.1 mph - N/A   Overcast
2:53 AM 15.1 °F 4.2 °F 12.0 °F 88% 30.32 in 4.0 mi South 8.1 mph - N/A   Overcast
3:53 AM 15.1 °F 5.2 °F 12.0 °F 88% 30.30 in 4.0 mi South 6.9 mph - N/A   Overcast
4:53 AM 15.1 °F 4.2 °F 12.9 °F 91% 30.29 in 4.0 mi South 8.1 mph - N/A   Overcast
5:53 AM 15.1 °F 4.2 °F 12.0 °F 88% 30.26 in 5.0 mi South 8.1 mph - N/A   Overcast
6:53 AM 15.1 °F 5.2 °F 12.0 °F 88% 30.25 in 4.0 mi South 6.9 mph - N/A   Overcast
7:42 AM 15.1 °F 2.5 °F 12.0 °F 88% 30.14 in 2.0 mi South 10.4 mph - N/A   Overcast
7:53 AM 15.1 °F 3.3 °F 12.0 °F 88% 30.23 in 1.0 mi South 9.2 mph - N/A   Overcast
8:43 AM 15.1 °F 1.1 °F 12.0 °F 88% 30.13 in 2.0 mi SSW 12.7 mph - N/A   Overcast
8:53 AM 15.1 °F 3.3 °F 12.0 °F 88% 30.22 in 2.0 mi SSW 9.2 mph - N/A   Overcast
9:14 AM 16.0 °F 4.4 °F 12.9 °F 88% 30.12 in 3.0 mi SSW 9.2 mph - N/A   Overcast
9:28 AM 16.0 °F 3.6 °F 12.0 °F 84% 30.12 in 4.0 mi SSW 10.4 mph - N/A   Overcast
9:53 AM 17.1 °F 6.6 °F 12.9 °F 84% 30.20 in 3.0 mi South 8.1 mph - N/A   Mostly Cloudy
10:40 AM 18.0 °F 4.8 °F 14.0 °F 84% 30.10 in 4.0 mi South 12.7 mph - N/A   Clear
10:53 AM 19.0 °F 7.5 °F 15.1 °F 85% 30.19 in 5.0 mi South 10.4 mph - N/A   Clear
11:53 AM 21.9 °F 11.0 °F 17.1 °F 82% 30.14 in 6.0 mi South 10.4 mph - N/A   Haze
12:53 PM 27.0 °F 16.1 °F 19.9 °F 75% 30.09 in 7.0 mi South 12.7 mph - N/A   Clear
1:53 PM 30.0 °F 21.1 °F 21.9 °F 72% 30.04 in 8.0 mi SSW 10.4 mph - N/A   Clear
2:53 PM 32.0 °F 22.1 °F 24.1 °F 73% 30.01 in 8.0 mi South 13.8 mph - N/A   Clear
3:53 PM 34.0 °F 26.0 °F 25.0 °F 70% 30.00 in 9.0 mi South 10.4 mph - N/A   Clear
5:53 PM 32.0 °F 22.1 °F 25.0 °F 75% 30.01 in 9.0 mi SSW 13.8 mph - N/A   Overcast
6:32 PM 30.9 °F 19.1 °F 25.0 °F 79% 29.92 in 9.0 mi SSW 18.4 mph - N/A   Overcast
6:53 PM 30.9 °F 19.8 °F 25.0 °F 79% 29.98 in 9.0 mi South 16.1 mph - N/A   Overcast
7:53 PM 30.9 °F 19.4 °F 25.0 °F 79% 29.97 in 8.0 mi SSW 17.3 mph 26.5 mph N/A   Overcast
8:53 PM 30.9 °F 20.7 °F 26.1 °F 82% 29.95 in 8.0 mi South 13.8 mph - N/A   Overcast
9:53 PM 30.9 °F 21.7 °F 26.1 °F 82% 29.93 in 8.0 mi South 11.5 mph - N/A   Overcast
10:53 PM 30.9 °F 20.7 °F 26.1 °F 82% 29.92 in 8.0 mi SSW 13.8 mph - N/A   Overcast
11:53 PM 32.0 °F 23.0 °F 27.0 °F 82% 29.88 in 8.0 mi South 11.5 mph - N/A   Overcast